| time (UTC) | temp F | wind direction | speed MPH | gust MPH | rain 1hr in | rain 24hr in | rain mn in | humidity % | barometer mb |
| 20260508051620 | 60 | 289 | 0.0 | 1.0 | 0.00 | 0.00 | 0.00 | 88 | 986.7 |
| 20260508031550 | 60 | 234 | 0.0 | 0.0 | 0.00 | 0.00 | 0.00 | 86 | 985.7 |
| 20260508025930 | 57 | 329 | 0.0 | 2.0 | 0.00 | 0.00 | 0.00 | 82 | 1006.1 |
| 20260508021117 | 61 | 5 | 0.0 | 0.0 | 0.00 | 0.00 | 0.00 | 87 | 985.4 |
| 20260508015929 | 57 | 327 | 0.0 | 0.0 | 0.00 | 0.01 | 0.00 | 82 | 1006.4 |
| 20260508011059 | 61 | 317 | 0.0 | 0.0 | 0.00 | 0.00 | 0.00 | 90 | 985.8 |
| 20260508005916 | 58 | 327 | 0.0 | 0.0 | 0.00 | 0.02 | 0.00 | 81 | 1006.6 |
| 20260507235909 | 58 | 59 | 1.0 | 3.0 | 0.00 | 0.12 | 0.00 | 81 | 1007.2 |
| 20260507220042 | 63 | 322 | 1.0 | 8.0 | 0.00 | 0.00 | 0.00 | 88 | 987.1 |
| 20260507215936 | 58 | 355 | 0.0 | 0.0 | 0.00 | 0.14 | 0.00 | 82 | 1007.9 |
| 20260507201514 | 63 | 360 | 2.0 | 9.0 | 0.00 | 0.00 | 0.00 | 86 | 986.6 |
| 20260507191137 | 63 | 328 | 1.0 | 8.0 | 0.00 | 0.00 | 0.00 | 85 | 986.8 |
| 20260507185935 | 64 | 355 | 0.0 | 0.0 | 0.00 | 0.19 | 0.14 | 67 | 1008.5 |
| 20260507181019 | 63 | 302 | 4.0 | 10.0 | 0.00 | 0.00 | 0.00 | 85 | 986.4 |
| 20260507165932 | 73 | 355 | 0.0 | 0.0 | 0.00 | 0.21 | 0.14 | 48 | 1008.3 |
| 20260507161558 | 63 | 80 | 2.0 | 11.0 | 0.00 | 0.00 | 0.00 | 84 | 986.4 |
| 20260507151519 | 64 | 32 | 1.0 | 9.0 | 0.00 | 0.00 | 0.00 | 82 | 986.8 |
| 20260507145931 | 76 | 344 | 2.0 | 5.0 | 0.00 | 0.21 | 0.14 | 51 | 1008.6 |
| 20260507135924 | 77 | 267 | 1.0 | 4.0 | 0.00 | 0.21 | 0.14 | 51 | 1009.4 |
| 20260507131808 | 66 | 59 | 5.0 | 16.0 | 0.00 | 0.00 | 0.00 | 76 | 988.6 |
| 20260507121518 | 65 | 59 | 3.0 | 12.0 | 0.00 | 0.00 | 0.00 | 78 | 988.7 |
| 20260507115933 | 72 | 94 | 2.0 | 5.0 | 0.00 | 0.21 | 0.14 | 62 | 1010.3 |
| 20260507111115 | 68 | 45 | 4.0 | 10.0 | 0.00 | 0.00 | 0.00 | 72 | 989.3 |
| 20260507105929 | 71 | 239 | 2.0 | 5.0 | 0.00 | 0.21 | 0.14 | 66 | 1011.1 |
| 20260507091150 | 66 | 5 | 3.0 | 14.0 | 0.00 | 0.00 | 0.00 | 73 | 989.9 |
| 20260507085921 | 68 | 302 | 1.0 | 4.0 | 0.00 | 0.21 | 0.14 | 70 | 1011.3 |
| 20260507075920 | 66 | 308 | 0.0 | 2.0 | 0.00 | 0.21 | 0.14 | 75 | 1011.5 |
| 20260507071628 | 65 | 40 | 4.0 | 10.0 | 0.00 | 0.00 | 0.00 | 81 | 990.0 |
| 20260507065914 | 62 | 306 | 1.0 | 4.0 | 0.00 | 0.21 | 0.14 | 87 | 1011.5 |